Weather History for KMFI - April, 2014

Change the Weather History Date:

Monday, April 7, 2014

  Actual Average Record
Temperature  
Mean Temperature 46 °F -  
Max Temperature 55 °F 52 °F 82 °F (1991)
Min Temperature 37 °F 29 °F 10 °F (1982)
Degree Days  
Heating Degree Days 20    
Moisture  
Dew Point 39 °F    
Average Humidity 83    
Maximum Humidity 97    
Minimum Humidity 66    
Precipitation  
Precipitation 0.00 in - - ()
Sea Level Pressure  
Sea Level Pressure 29.78 in    
Wind  
Wind Speed 4 mph (NW)    
Max Wind Speed 12 mph    
Max Gust Speed -    
Visibility 7 miles    
Events Rain    
Averages and records for this station are not official NWS values.
T = Trace of Precipitation, MM = Missing Value Source: NWS Daily Summary

Daily Weather History Graph

Daily Weather History Graph

Search for Another Location

Airport or City:

Trip Planner

Search our weather history database for the weather conditions in past years. The results will help you decide how hot, cold, wet, or windy it might be!

Date:

Astronomy

Apr. 07, 2014 Rise Set
Actual Time 6:30 AM CDT 7:35 PM CDT
Civil Twilight 6:00 AM CDT 8:05 PM CDT
Nautical Twilight 5:25 AM CDT 8:41 PM CDT
Astronomical Twilight 4:47 AM CDT 9:19 PM CDT
Moon 12:20 PM CDT (4/7) 2:19 AM CDT (4/7)
Length of Visible Light 14h 04m
Length of Day
13h 05m
First Quarter, 53% of the Moon is Illuminated
Apr 7
First Quarter
Apr 15
Full
Apr 22
Last Quarter
Apr 29
New
May 6
First Quarter

Hourly Weather History & Observations

Time (CDT) Temp. Windchill Dew Point Humidity Pressure Visibility Wind Dir Wind Speed Gust Speed Precip Events Conditions
12:54 AM 43.0 °F - 37.9 °F 82% 29.88 in 9.0 mi Calm Calm - N/A   Clear
1:54 AM 39.9 °F 37.8 °F 37.0 °F 89% 29.87 in 6.0 mi South 3.5 mph - N/A   Clear
2:54 AM 37.9 °F - 37.0 °F 97% 29.85 in 4.0 mi Calm Calm - N/A   Mostly Cloudy
3:45 AM 39.0 °F 36.8 °F 37.0 °F 93% 29.81 in 1.8 mi South 3.5 mph - N/A   Overcast
3:54 AM 37.0 °F - 36.0 °F 96% 29.83 in 2.5 mi Calm Calm - N/A   Mostly Cloudy
4:45 AM 39.0 °F 35.7 °F 37.0 °F 93% 29.80 in 5.0 mi SW 4.6 mph - N/A   Overcast
4:54 AM 37.0 °F - 36.0 °F 96% 29.82 in 5.0 mi Calm Calm - N/A   Overcast
5:38 AM 39.0 °F 35.7 °F 37.0 °F 93% 29.80 in 2.5 mi South 4.6 mph - N/A   Overcast
5:51 AM 37.4 °F 33.8 °F 35.6 °F 93% 29.80 in 4.0 mi South 4.6 mph - N/A   Overcast
5:54 AM 39.0 °F 35.7 °F 36.0 °F 89% 29.82 in 4.0 mi South 4.6 mph - N/A   Overcast
6:54 AM 37.9 °F 34.4 °F 36.0 °F 93% 29.83 in 6.0 mi South 4.6 mph - N/A   Overcast
7:54 AM 37.9 °F 34.4 °F 36.0 °F 93% 29.84 in 5.0 mi South 4.6 mph - N/A   Overcast
8:54 AM 42.1 °F - 37.0 °F 82% 29.83 in 6.0 mi Calm Calm - 0.00 in Rain Light Rain
9:54 AM 46.0 °F - 39.0 °F 76% 29.80 in 8.0 mi Calm Calm - 0.00 in   Overcast
10:54 AM 48.0 °F - 41.0 °F 77% 29.80 in 8.0 mi Calm Calm - N/A   Overcast
11:54 AM 52.0 °F - 44.1 °F 74% 29.78 in 9.0 mi NNW 3.5 mph - N/A   Overcast
12:23 PM 52.0 °F - 42.1 °F 69% 29.75 in 10.0 mi NNE 3.5 mph - N/A   Overcast
12:52 PM 53.6 °F - 42.8 °F 67% 29.74 in 10.0 mi NNE 3.5 mph - N/A   Overcast
12:54 PM 53.1 °F - 43.0 °F 69% 29.76 in 10.0 mi Variable 4.6 mph - N/A   Overcast
1:07 PM 53.1 °F - 43.0 °F 69% 29.73 in 10.0 mi NNE 3.5 mph - N/A   Overcast
1:41 PM 54.0 °F - 43.0 °F 66% 29.72 in 10.0 mi NNW 4.6 mph - N/A   Overcast
1:54 PM 54.0 °F - 43.0 °F 66% 29.73 in 10.0 mi North 8.1 mph - N/A   Overcast
3:54 PM 51.1 °F - 44.1 °F 77% 29.72 in 9.0 mi NW 10.4 mph - N/A   Overcast
4:54 PM 48.9 °F - 42.1 °F 77% 29.72 in 9.0 mi NW 8.1 mph - N/A   Overcast
5:54 PM 46.0 °F 41.4 °F 42.1 °F 86% 29.73 in 5.0 mi NW 9.2 mph - 0.00 in Rain Light Rain
6:02 PM 46.9 °F - 43.0 °F 86% 29.70 in 4.0 mi NW 10.4 mph - 0.00 in Rain Light Rain
6:54 PM 48.0 °F - 44.1 °F 86% 29.72 in 5.0 mi NW 6.9 mph - 0.00 in Rain Light Rain
7:54 PM 46.0 °F 41.4 °F 41.0 °F 83% 29.73 in 8.0 mi NNW 9.2 mph - 0.00 in Rain Light Rain
8:54 PM 44.1 °F 38.6 °F 39.0 °F 82% 29.73 in 10.0 mi NNW 10.4 mph - 0.00 in   Overcast
9:54 PM 43.0 °F 36.8 °F 37.0 °F 80% 29.73 in 10.0 mi North 11.5 mph - N/A   Overcast
10:54 PM 41.0 °F 34.7 °F 34.0 °F 76% 29.73 in 10.0 mi NNW 10.4 mph - N/A   Clear
11:54 PM 37.0 °F 30.4 °F 33.1 °F 86% 29.73 in 10.0 mi NNW 9.2 mph - N/A   Clear